This is the latest recevied weather packets stored in our database for station/object KE5YIM-13. If no packets are shown the sender has not sent any weather packets the latest 10 day(s).
| Time | Temp. | Humidity | Pressure | Rain* | Wind** | Luminosity | Snow |
|---|---|---|---|---|---|---|---|
| 1777771856 | 9.44° C | 68% | 1012.2 hPa | 0 mm | - | 0 W/m² | - |
| 1777771554 | 10° C | 68% | 1012.2 hPa | 0 mm | - | 0 W/m² | - |
| 1777771250 | 8.89° C | 70% | 1012.2 hPa | 0 mm | - | 0 W/m² | - |
| 1777770946 | 8.89° C | 80% | 1012.1 hPa | 0 mm | - | 0 W/m² | - |
| 1777770644 | 8.89° C | 83% | 1012.2 hPa | 0 mm | - | 0 W/m² | - |
| 1777770340 | 8.89° C | 84% | 1012 hPa | 0 mm | - | 0 W/m² | - |
| 1777770038 | 8.89° C | 83% | 1011.9 hPa | 0 mm | - | 0 W/m² | - |
| 1777769734 | 8.89° C | 82% | 1011.7 hPa | 0 mm | - | 0 W/m² | - |
| 1777769432 | 9.44° C | 82% | 1011.7 hPa | 0 mm | - | 0 W/m² | - |
| 1777769128 | 9.44° C | 81% | 1011.6 hPa | 0 mm | - | 0 W/m² | - |
| 1777768826 | 9.44° C | 80% | 1011.8 hPa | 0 mm | - | 0 W/m² | - |
| 1777768523 | 10° C | 80% | 1011.8 hPa | 0 mm | - | 0 W/m² | - |
| 1777768220 | 10° C | 79% | 1011.7 hPa | 0 mm | - | 0 W/m² | - |
| 1777767917 | 10.56° C | 77% | 1011.6 hPa | 0 mm | - | 0 W/m² | - |
| 1777767614 | 10.56° C | 76% | 1011.5 hPa | 0 mm | - | 0 W/m² | - |
| 1777767310 | 11.11° C | 75% | 1011.7 hPa | 0 mm | - | 0 W/m² | - |
| 1777767008 | 11.11° C | 73% | 1011.4 hPa | 0 mm | - | 0 W/m² | - |
| 1777766705 | 11.67° C | 72% | 1011.4 hPa | 0 mm | - | 0 W/m² | - |
| 1777766402 | 11.67° C | 71% | 1011.4 hPa | 0 mm | - | 1 W/m² | - |
| 1777766098 | 12.22° C | 69% | 1011.5 hPa | 0 mm | - | 2 W/m² | - |
| 1777765796 | 12.78° C | 65% | 1011.3 hPa | 0 mm | - | 4 W/m² | - |
| 1777765492 | 13.33° C | 55% | 1011.3 hPa | 0 mm | - | 7 W/m² | - |
| 1777765190 | 13.33° C | 55% | 1011.3 hPa | 0 mm | - | 8 W/m² | - |
| 1777764885 | 13.89° C | 55% | 1011.2 hPa | 0 mm | - | 13 W/m² | - |
| 1777764582 | 13.89° C | 53% | 1011 hPa | 0 mm | - | 15 W/m² | - |
* Rain latest hour (hover to see other rain measurements)
** Current wind speed in m/s (hover to see current wind gust speed)